Temperature
10 10 10 10 10 10 10 10 10 9 8 8 8 7 7 7 6 6 5 5 4 3 3 2 1 1 -0 -1 -2 -2 -3 -5 -5 -5 -5 -6 -6 -6 -6 -6 -7 -7 -7
10 9 9 9 9 9 9 9 8 8 7 7 7 7 6 6 5 5 4 4 3 2 2 1 0 -0 -1 -2 -3 -4 -5 -5 -6 -6 -6 -7 -7 -7 -7 -7 -7 -7 -7
9 8 8 8 8 8 8 8 7 7 7 6 6 6 5 5 4 4 3 3 2 1 1 0 -1 -1 -2 -3 -4 -5 -5 -6 -7 -7 -8 -8 -7 -7 -8 -7 -7 -7 -7
7 7 7 7 7 7 7 6 6 6 6 6 5 5 5 4 3 3 2 2 1 1 0 -1 -1 -2 -3 -4 -5 -6 -6 -7 -8 -8 -8 -8 -8 -8 -8 -8 -8 -8 -8
6 5 5 6 6 6 6 6 6 5 5 5 5 4 4 3 3 2 2 1 0 -0 -1 -1 -2 -3 -4 -5 -6 -7 -7 -8 -8 -8 -8 -8 -8 -8 -8 -8 -9 -9 -8
5 4 4 5 5 5 5 5 5 5 4 4 4 3 3 2 2 1 1 0 -0 -1 -1 -2 -3 -4 -5 -6 -7 -7 -8 -8 -8 -8 -8 -8 -8 -8 -9 -9 -9 -9 -9
3 3 3 4 5 5 5 5 4 4 3 3 3 2 2 1 1 0 -0 -1 -1 -2 -2 -3 -4 -5 -6 -7 -7 -8 -8 -8 -9 -9 -9 -9 -9 -9 -9 -9 -9 -9 -9
2 2 3 4 4 4 4 4 3 3 3 2 2 1 1 1 0 -0 -1 -2 -2 -3 -3 -5 -6 -6 -7 -8 -8 -8 -8 -8 -9 -9 -9 -9 -9 -9 -9 -9 -9 -9 -9
1 2 3 4 4 4 3 3 2 2 2 1 1 1 0 -0 -1 -2 -2 -3 -3 -4 -5 -5 -6 -7 -8 -8 -8 -8 -9 -8 -8 -9 -9 -9 -9 -8 -9 -9 -9 -9 -9
1 2 3 3 3 3 2 2 2 1 1 1 0 -0 -1 -1 -2 -3 -4 -4 -5 -5 -6 -6 -7 -8 -8 -8 -9 -9 -9 -9 -9 -9 -8 -8 -8 -8 -8 -9 -9 -10 -10
2 2 2 2 2 2 2 1 1 1 0 -0 -0 -1 -2 -3 -3 -4 -5 -6 -7 -7 -7 -7 -8 -8 -9 -9 -9 -9 -9 -9 -9 -9 -8 -8 -7 -8 -7 -8 -8 -10 -10
2 2 2 2 2 1 1 1 0 -0 -0 -1 -1 -2 -3 -4 -4 -5 -6 -7 -8 -8 -8 -8 -8 -9 -9 -9 -9 -9 -9 -9 -9 -9 -8 -8 -8 -8 -8 -8 -8 -8 -8
2 2 2 1 1 0 0 -0 -0 -1 -1 -2 -2 -3 -4 -4 -5 -6 -7 -7 -7 -8 -8 -9 -9 -9 -9 -8 -8 -9 -9 -9 -9 -9 -9 -8 -8 -8 -8 -8 -7 -8 -7
2 1 1 1 0 -0 -0 -1 -1 -2 -2 -3 -3 -4 -4 -5 -6 -7 -7 -8 -8 -8 -8 -8 -8 -8 -8 -9 -9 -8 -8 -9 -9 -9 -9 -8 -8 -8 -8 -8 -8 -8 -8
1 1 0 -0 -0 -1 -1 -2 -2 -3 -3 -4 -4 -5 -6 -6 -7 -8 -9 -9 -9 -9 -9 -9 -8 -8 -8 -8 -8 -8 -8 -8 -8 -8 -8 -8 -8 -8 -8 -8 -8 -9 -9
1 0 -0 -1 -1 -1 -2 -2 -3 -3 -4 -5 -5 -6 -7 -8 -8 -8 -9 -9 -9 -9 -9 -9 -9 -9 -9 -9 -8 -8 -8 -8 -8 -8 -8 -8 -8 -8 -8 -8 -8 -9 -9
0 -0 -1 -1 -2 -2 -2 -3 -3 -4 -5 -6 -6 -7 -8 -9 -9 -9 -9 -9 -9 -9 -9 -9 -9 -9 -9 -9 -9 -8 -8 -8 -8 -8 -8 -8 -8 -8 -8 -8 -8 -8 -9
-1 -1 -1 -2 -2 -3 -3 -4 -4 -5 -5 -6 -7 -8 -9 -9 -9 -9 -10 -9 -9 -9 -9 -9 -9 -9 -9 -9 -8 -8 -8 -8 -8 -8 -8 -8 -8 -8 -8 -8 -8 -9 -9
-1 -2 -2 -2 -3 -3 -4 -4 -5 -6 -7 -7 -7 -8 -8 -8 -9 -9 -9 -9 -9 -9 -9 -9 -9 -9 -9 -8 -8 -8 -8 -8 -8 -8 -8 -8 -8 -8 -8 -8 -8 -8 -9
-2 -2 -3 -3 -3 -4 -5 -5 -6 -7 -7 -8 -8 -9 -9 -9 -9 -9 -9 -9 -10 -9 -9 -9 -9 -9 -8 -8 -8 -8 -8 -8 -8 -8 -8 -8 -8 -8 -8 -8 -8 -8 -8
-2 -3 -3 -4 -4 -5 -5 -6 -7 -7 -8 -8 -9 -9 -10 -10 -10 -10 -10 -10 -10 -9 -9 -9 -9 -8 -8 -8 -8 -8 -8 -7 -8 -8 -8 -8 -8 -8 -8 -8 -8 -8 -8
-3 -3 -4 -4 -5 -6 -6 -7 -8 -8 -8 -9 -9 -9 -10 -10 -10 -10 -10 -10 -9 -9 -9 -9 -8 -8 -8 -8 -8 -7 -7 -7 -7 -8 -8 -8 -8 -8 -8 -8 -8 -8 -8
-4 -4 -4 -5 -6 -6 -7 -8 -8 -9 -9 -9 -10 -10 -10 -10 -10 -10 -10 -10 -9 -9 -9 -8 -8 -8 -7 -7 -7 -7 -7 -7 -7 -8 -8 -8 -8 -8 -8 -8 -8 -8 -8
-4 -5 -5 -6 -6 -7 -8 -8 -9 -9 -9 -10 -10 -10 -10 -10 -10 -10 -10 -9 -9 -9 -8 -8 -8 -8 -7 -7 -7 -7 -7 -7 -7 -7 -7 -7 -8 -8 -8 -8 -8 -8 -8
-5 -5 -6 -6 -7 -7 -8 -9 -9 -9 -10 -10 -10 -10 -10 -10 -10 -10 -9 -9 -9 -8 -8 -8 -8 -7 -7 -7 -7 -7 -7 -7 -7 -7 -7 -7 -7 -7 -7 -8 -8 -8 -7
-5 -6 -6 -7 -7 -8 -8 -9 -9 -10 -10 -10 -10 -10 -10 -10 -10 -10 -9 -9 -9 -8 -8 -8 -8 -7 -7 -7 -7 -7 -7 -7 -7 -7 -7 -7 -7 -7 -7 -7 -7 -7 -7
Wind_Speed
14 15 15 14 15 15 15 15 15 14 14 14 12 11 9 7 6 4 3 3 2 2 2 3 4 3 3 3 3 4 5 6 12 10 6 7 9 11 14 19 22 21 22
16 16 15 15 15 16 16 15 15 14 13 13 11 10 8 7 5 4 2 2 2 3 4 4 4 4 4 4 4 5 5 6 9 14 9 7 10 11 12 12 15 20 19
17 17 16 15 16 17 17 16 15 14 13 11 10 9 7 6 4 3 2 1 3 4 4 5 5 4 5 5 5 5 5 8 7 11 12 8 9 11 12 13 14 11 18
17 16 15 15 16 17 17 15 14 13 12 11 9 8 7 5 4 3 3 3 4 5 5 5 5 5 6 6 6 6 7 7 8 10 12 11 11 10 10 11 12 9 12
16 15 15 16 16 17 16 15 14 13 12 10 9 7 6 4 4 5 4 5 6 6 6 6 6 8 10 9 8 7 7 7 8 10 12 13 12 10 10 10 14 12 12
16 15 16 17 17 16 16 15 14 12 10 9 7 6 4 3 5 3 4 4 6 7 7 7 7 8 12 15 17 17 15 12 10 11 13 14 14 12 11 11 13 16 16
16 16 17 18 18 16 16 14 13 10 8 7 6 4 4 4 3 3 6 5 6 7 8 7 7 8 12 7 12 17 16 21 22 16 16 15 15 13 12 13 14 16 18
16 16 16 17 17 15 14 13 10 8 7 6 4 3 2 2 1 3 7 6 7 7 8 7 7 7 9 11 9 8 8 11 17 14 13 14 13 12 13 16 16 14 14
16 16 15 16 16 14 13 11 8 7 6 4 3 2 1 0 0 4 7 4 6 8 8 8 9 8 16 20 12 9 11 11 19 23 24 23 28 28 22 13 10 12 16
15 15 15 14 14 13 11 9 6 6 5 3 2 0 1 1 2 5 8 3 5 6 6 8 14 16 19 20 12 12 15 13 12 14 16 19 16 17 22 12 8 12 14
15 15 14 13 13 11 9 7 6 5 3 1 0 2 2 2 3 7 9 4 5 6 6 6 8 20 22 23 22 13 17 18 11 10 11 11 10 9 9 9 8 10 14
15 15 13 11 10 9 8 6 5 4 2 2 2 3 3 3 4 8 11 12 12 7 7 7 10 21 24 25 19 18 23 19 8 9 10 10 10 11 11 12 13 12 13
15 14 12 10 8 7 7 5 4 3 3 3 3 3 4 4 6 11 13 16 18 11 9 17 20 24 23 16 17 21 17 9 8 9 10 11 9 10 11 12 13 12 14
14 12 9 9 8 7 5 4 3 4 4 4 4 4 4 5 5 5 6 8 13 11 10 15 20 21 17 15 14 11 8 8 10 9 11 11 11 10 11 11 12 12 12
12 10 8 7 6 5 4 4 4 3 3 2 2 3 4 5 8 15 12 8 8 10 12 8 7 8 7 7 8 8 7 8 9 10 11 12 12 12 12 10 10 11 13
10 8 6 5 5 4 3 2 2 1 2 3 4 5 5 9 15 17 18 18 19 19 13 7 8 8 9 10 11 11 10 10 10 11 11 12 12 12 13 12 11 12 13
9 7 5 5 4 4 4 4 3 4 5 6 7 9 9 13 15 17 17 17 17 16 7 6 8 9 9 10 10 11 12 11 11 11 11 11 12 12 12 13 12 12 13
8 8 7 5 5 4 4 3 3 3 4 5 6 10 12 14 16 17 16 13 9 9 6 7 8 9 9 10 11 11 12 12 11 11 11 12 11 12 12 13 12 13 14
7 5 5 4 4 3 3 3 3 4 4 4 4 7 11 14 15 15 13 6 7 8 8 8 9 9 10 10 11 11 12 12 13 12 12 12 12 12 12 12 13 18 16
6 8 6 4 4 3 3 3 3 4 4 4 5 5 6 7 6 8 7 6 6 8 9 9 10 10 10 11 11 11 11 12 13 12 12 12 11 11 13 14 13 13 13
5 5 6 4 3 3 3 3 3 4 4 5 5 8 13 6 6 7 7 7 7 8 9 10 10 11 10 10 10 11 13 13 12 12 12 12 12 12 12 12 13 13 13
4 4 3 3 2 2 3 3 3 4 5 6 6 8 13 7 6 7 7 8 8 8 9 10 10 10 10 11 11 12 12 13 12 12 12 12 12 12 12 12 12 12 12
4 3 3 2 2 4 4 3 4 4 5 5 6 7 7 7 7 7 8 9 9 9 9 9 11 11 10 11 11 11 12 13 12 13 13 13 12 11 11 11 12 12 12
4 3 2 2 2 3 3 4 4 5 5 6 6 7 7 7 8 9 9 9 10 10 9 10 11 14 17 14 13 14 13 14 14 12 13 12 11 10 10 10 10 11 11
3 3 2 2 3 3 4 4 4 5 6 7 7 7 8 8 9 9 9 9 10 11 12 13 11 12 16 18 18 17 20 24 20 13 8 8 9 10 10 10 10 10 10
2 2 2 2 3 3 4 4 5 5 6 6 7 7 8 8 9 9 9 10 10 11 12 11 14 18 20 18 19 21 24 23 21 18 9 6 8 9 9 8 10 9 10
Wind_Direction
133 130 132 132 134 134 135 135 135 134 134 131 130 129 128 129 132 134 142 146 196 265 264 248 258 265 269 270 272 271 268 268 282 288 282 293 299 297 298 296 296 293 293
126 126 128 129 131 131 131 131 131 130 127 126 126 125 125 123 122 125 131 151 239 268 278 281 280 283 280 275 272 269 272 272 283 294 297 297 293 294 293 291 299 298 296
123 125 128 130 131 130 129 128 126 123 119 117 116 116 115 111 104 89 68 346 304 286 277 270 271 278 279 276 279 282 283 291 288 296 300 298 294 294 294 294 292 292 297
122 126 130 131 130 127 124 121 118 116 114 110 107 107 106 106 101 72 26 333 307 295 287 276 267 260 261 266 278 275 280 283 286 291 295 296 292 288 290 297 299 290 294
122 126 128 126 123 120 117 115 113 110 108 105 106 104 106 113 90 56 10 335 325 314 304 294 284 285 288 288 285 272 278 280 285 291 293 295 295 297 297 297 300 301 292
123 125 124 122 119 115 113 111 108 105 105 106 107 112 116 105 88 34 341 326 318 309 301 298 298 295 296 300 303 303 301 300 300 295 295 295 296 294 294 295 299 301 299
121 123 122 120 116 112 112 109 108 108 109 108 108 110 107 115 104 358 328 324 305 294 292 294 299 299 307 297 295 298 298 298 298 296 294 292 292 291 290 292 291 290 292
120 120 119 116 112 110 108 107 107 109 109 109 107 96 87 143 130 339 329 329 306 299 298 295 293 292 295 299 286 287 281 290 291 291 285 285 289 289 284 289 290 290 288
117 116 115 113 112 110 108 106 105 105 102 101 96 74 29 46 246 332 332 319 305 305 306 313 317 302 303 308 311 303 297 293 298 297 297 298 299 300 300 300 297 299 298
113 111 109 108 108 108 108 105 101 99 98 96 99 288 297 287 302 325 327 306 305 306 307 307 311 310 309 313 312 303 302 300 297 298 299 298 295 294 301 298 296 298 298
110 107 103 102 104 106 104 100 100 95 90 78 355 310 300 285 313 317 320 314 291 295 299 300 301 311 311 311 310 303 300 304 301 300 299 297 296 294 295 291 288 290 292
107 103 101 99 101 103 101 96 91 85 59 20 13 353 343 349 335 317 321 325 325 317 309 303 305 311 312 312 311 307 307 311 305 300 298 297 298 299 300 298 294 288 278
104 102 100 97 93 92 95 93 82 63 47 27 14 351 337 346 339 338 336 330 325 320 309 312 313 314 314 311 308 312 316 312 301 298 297 296 294 293 299 300 297 290 283
105 102 99 97 90 80 72 68 67 61 47 23 8 356 345 341 335 337 327 317 317 314 306 307 313 312 312 312 315 315 309 300 304 300 301 300 300 300 300 301 302 306 302
103 99 94 91 93 84 72 63 71 79 79 32 354 345 339 325 319 325 326 317 313 307 313 307 307 310 313 316 312 308 306 308 308 303 302 302 303 303 302 301 298 301 298
104 97 93 90 84 82 72 58 73 77 14 342 326 323 318 318 322 326 324 321 322 321 322 316 314 315 315 315 315 314 312 309 306 304 302 300 300 301 302 302 300 299 298
102 99 91 86 78 65 54 44 13 347 334 324 323 324 326 329 331 328 326 327 329 333 332 316 311 310 309 309 308 307 306 305 304 301 299 299 299 299 299 300 301 300 299
89 85 83 76 69 59 48 30 12 355 342 334 336 336 338 339 336 334 336 338 330 329 313 308 307 307 307 306 305 305 304 304 304 302 300 298 297 297 297 298 299 299 301
85 80 76 74 65 53 35 15 358 350 338 326 326 335 341 338 337 337 341 331 316 315 312 309 306 305 304 302 302 301 300 300 300 300 298 297 297 297 296 296 298 300 302
80 82 76 67 56 41 21 6 358 348 335 328 326 321 321 329 329 328 328 315 311 311 311 309 306 303 302 301 300 300 299 299 299 298 297 297 297 296 295 297 298 300 301
90 79 68 61 52 32 9 358 348 337 327 322 318 321 332 334 321 316 317 316 312 310 309 307 304 303 301 299 299 297 296 297 297 297 297 297 298 298 297 296 297 299 301
88 82 67 60 36 16 354 339 331 326 323 320 317 322 331 329 312 311 312 311 308 304 303 303 301 299 298 298 298 298 297 297 297 297 296 296 297 298 299 299 301 305 308
81 75 61 45 19 352 350 341 334 324 318 315 316 320 322 320 317 313 311 311 310 309 308 305 303 301 300 298 295 293 292 293 294 293 295 297 298 299 301 305 308 314 318
74 64 45 22 3 348 336 330 324 321 319 316 315 315 315 314 313 312 312 311 311 310 309 308 303 299 300 303 303 300 296 295 294 293 293 299 305 309 312 315 316 319 321
65 47 26 7 347 334 327 322 320 318 318 317 315 315 315 313 311 310 310 310 310 309 309 310 306 305 305 306 307 306 307 312 317 319 310 310 311 313 316 317 320 323 324
56 28 3 344 331 324 319 314 309 307 304 305 306 306 307 308 308 308 310 311 313 313 312 311 307 308 308 310 310 313 319 326 333 337 336 318 320 320 324 324 326 329 328
Height
1411 1416 1421 1425 1430 1434 1440 1445 1451 1457 1463 1468 1473 1477 1480 1482 1483 1484 1484 1484 1483 1482 1480 1479 1477 1475 1473 1471 1469 1467 1464 1461 1454 1447 1447 1444 1441 1437 1432 1429 1424 1420 1415
1408 1413 1418 1423 1427 1433 1438 1444 1451 1457 1463 1468 1472 1475 1478 1480 1480 1481 1481 1480 1479 1478 1477 1475 1473 1470 1468 1466 1463 1461 1458 1455 1451 1442 1439 1437 1434 1430 1425 1421 1417 1413 1408
1406 1411 1417 1422 1426 1432 1438 1444 1451 1457 1462 1467 1471 1474 1476 1477 1478 1478 1478 1477 1476 1474 1472 1470 1468 1465 1463 1460 1458 1455 1452 1449 1445 1439 1433 1430 1426 1423 1418 1413 1409 1405 1400
1405 1411 1416 1421 1426 1432 1438 1445 1452 1458 1462 1466 1470 1472 1474 1475 1475 1475 1474 1473 1472 1470 1468 1465 1463 1460 1457 1454 1452 1449 1446 1442 1439 1434 1428 1423 1419 1416 1413 1407 1400 1396 1391
1406 1412 1417 1422 1427 1433 1440 1447 1453 1458 1463 1466 1469 1471 1472 1472 1472 1472 1471 1469 1467 1465 1463 1461 1458 1455 1452 1450 1447 1444 1441 1437 1433 1428 1422 1417 1413 1410 1406 1401 1395 1388 1382
1408 1413 1418 1423 1429 1435 1442 1448 1454 1459 1463 1466 1468 1469 1469 1470 1469 1468 1467 1465 1463 1461 1458 1455 1452 1450 1447 1444 1442 1439 1436 1432 1427 1423 1417 1412 1407 1404 1400 1395 1389 1381 1372
1410 1415 1419 1425 1431 1437 1444 1450 1455 1459 1463 1465 1466 1467 1467 1467 1466 1464 1462 1460 1458 1455 1452 1449 1446 1444 1441 1438 1435 1432 1429 1426 1423 1419 1412 1406 1402 1398 1393 1388 1382 1376 1368
1413 1418 1423 1428 1434 1440 1447 1452 1456 1460 1462 1464 1464 1465 1464 1464 1462 1461 1458 1456 1453 1450 1448 1444 1441 1438 1435 1432 1429 1425 1422 1418 1415 1411 1406 1400 1396 1392 1388 1383 1377 1369 1361
1417 1422 1427 1433 1438 1444 1449 1453 1457 1459 1461 1462 1463 1463 1462 1460 1459 1456 1454 1451 1448 1445 1442 1439 1436 1433 1430 1427 1423 1418 1413 1409 1407 1403 1399 1394 1389 1385 1381 1376 1370 1363 1354
1422 1426 1432 1437 1442 1447 1451 1454 1457 1459 1460 1461 1461 1460 1459 1457 1455 1453 1450 1446 1443 1440 1437 1434 1431 1427 1424 1421 1417 1412 1406 1402 1398 1393 1389 1385 1381 1377 1374 1370 1364 1358 1350
1426 1431 1436 1442 1446 1449 1452 1455 1457 1458 1459 1459 1459 1458 1456 1454 1452 1449 1446 1443 1439 1435 1431 1428 1425 1422 1419 1415 1412 1407 1402 1397 1393 1388 1382 1378 1374 1370 1366 1362 1358 1352 1345
1432 1436 1441 1445 1448 1451 1453 1455 1456 1457 1457 1457 1456 1454 1453 1451 1448 1445 1443 1440 1436 1431 1427 1423 1419 1416 1413 1410 1406 1401 1397 1393 1388 1382 1377 1372 1368 1363 1358 1354 1350 1345 1339
1437 1440 1444 1447 1450 1452 1454 1455 1456 1456 1455 1454 1453 1451 1449 1447 1444 1441 1438 1435 1431 1427 1422 1419 1415 1411 1407 1403 1400 1396 1392 1388 1382 1377 1372 1367 1362 1357 1352 1346 1341 1336 1330
1441 1444 1447 1449 1451 1453 1454 1455 1454 1454 1453 1451 1450 1448 1446 1443 1440 1437 1433 1429 1425 1422 1417 1413 1410 1406 1403 1399 1395 1391 1387 1383 1378 1373 1367 1362 1356 1351 1346 1340 1334 1327 1320
1444 1447 1449 1451 1452 1453 1454 1454 1453 1452 1451 1449 1447 1445 1442 1439 1436 1433 1430 1425 1421 1417 1413 1409 1405 1401 1397 1394 1390 1386 1382 1378 1373 1368 1362 1356 1351 1345 1340 1335 1329 1322 1316
1446 1449 1450 1452 1452 1453 1453 1453 1451 1451 1449 1447 1445 1443 1439 1437 1433 1429 1426 1422 1418 1414 1410 1406 1402 1398 1394 1390 1385 1381 1377 1373 1368 1363 1358 1352 1346 1340 1334 1329 1324 1318 1311
1448 1450 1451 1452 1452 1452 1452 1451 1450 1449 1447 1445 1442 1440 1437 1434 1430 1426 1422 1419 1415 1411 1407 1403 1399 1395 1391 1387 1382 1378 1373 1369 1364 1359 1353 1348 1342 1336 1330 1324 1319 1313 1307
1450 1451 1452 1452 1452 1451 1450 1449 1448 1446 1444 1442 1440 1437 1434 1431 1427 1423 1419 1415 1412 1408 1404 1400 1396 1392 1388 1384 1379 1375 1370 1365 1360 1355 1349 1344 1338 1332 1326 1320 1315 1309 1303
1451 1451 1452 1452 1451 1450 1449 1448 1446 1444 1442 1439 1437 1434 1431 1427 1424 1421 1417 1413 1409 1405 1401 1398 1394 1390 1385 1381 1377 1372 1367 1362 1356 1351 1346 1340 1335 1329 1323 1317 1311 1305 1300
1451 1451 1451 1451 1450 1449 1447 1446 1444 1441 1439 1436 1433 1430 1427 1424 1420 1417 1414 1410 1407 1403 1399 1395 1391 1387 1383 1378 1374 1369 1363 1358 1353 1347 1342 1336 1331 1325 1319 1313 1308 1302 1296
1451 1451 1451 1450 1449 1447 1445 1443 1441 1439 1437 1434 1431 1428 1425 1421 1418 1414 1411 1408 1404 1401 1397 1393 1389 1384 1380 1376 1371 1365 1360 1355 1350 1344 1338 1333 1327 1321 1316 1310 1305 1299 1293
1451 1451 1450 1449 1447 1445 1443 1441 1439 1437 1434 1431 1428 1425 1422 1419 1416 1412 1409 1406 1402 1399 1395 1390 1386 1382 1378 1373 1368 1362 1357 1352 1346 1341 1335 1329 1324 1318 1313 1307 1302 1297 1292
1450 1449 1448 1447 1445 1443 1441 1439 1437 1434 1431 1429 1426 1422 1419 1416 1413 1410 1407 1403 1400 1396 1393 1388 1384 1380 1376 1371 1366 1361 1355 1349 1344 1338 1332 1326 1321 1316 1311 1306 1301 1296 1290
1449 1448 1447 1445 1443 1441 1439 1437 1434 1431 1429 1426 1423 1420 1417 1414 1411 1408 1405 1401 1398 1394 1390 1386 1382 1378 1373 1369 1364 1359 1354 1348 1342 1336 1331 1326 1320 1315 1310 1305 1300 1295 1290
1448 1446 1445 1443 1441 1439 1436 1434 1431 1429 1426 1423 1420 1418 1415 1412 1409 1406 1403 1399 1396 1392 1388 1384 1380 1376 1371 1366 1362 1357 1352 1346 1341 1336 1330 1325 1320 1315 1310 1305 1300 1295 1290
1446 1445 1443 1441 1439 1436 1434 1431 1429 1426 1423 1421 1418 1415 1412 1409 1407 1404 1400 1397 1393 1390 1386 1382 1378 1374 1369 1365 1360 1355 1350 1345 1340 1335 1330 1324 1319 1314 1309 1305 1300 1295 1290